| time (UTC) | temp F | wind direction | speed MPH | gust MPH | rain 1hr in | rain 24hr in | rain mn in | humidity % | barometer mb |
| 20260903190028 | 95 | 196 | 7.0 | 0.0 | 0.00 | 0.00 | 0.00 | 41 | 1007.7 |
| 20260903184524 | 94 | 221 | 7.0 | 0.0 | 0.00 | 0.00 | 0.00 | 41 | 1007.9 |
| 20260903183021 | 94 | 132 | 7.0 | 0.0 | 0.00 | 0.00 | 0.00 | 42 | 1008.1 |
| 20260903181519 | 93 | 240 | 7.0 | 0.0 | 0.00 | 0.00 | 0.00 | 43 | 1008.3 |
| 20260903180018 | 92 | 214 | 5.0 | 0.0 | 0.00 | 0.00 | 0.00 | 45 | 1008.7 |
| 20260903174515 | 91 | 186 | 5.0 | 0.0 | 0.00 | 0.00 | 0.00 | 47 | 1008.7 |
| 20260903173013 | 90 | 215 | 6.0 | 0.0 | 0.00 | 0.00 | 0.00 | 52 | 1009.0 |
| 20260903171510 | 90 | 161 | 6.0 | 0.0 | 0.00 | 0.00 | 0.00 | 51 | 1009.3 |
| 20260903170012 | 89 | 229 | 8.0 | 0.0 | 0.00 | 0.00 | 0.00 | 52 | 1009.4 |
| 20260903164506 | 88 | 204 | 6.0 | 0.0 | 0.00 | 0.00 | 0.00 | 56 | 1009.4 |
| 20260903163006 | 86 | 202 | 7.0 | 0.0 | 0.00 | 0.00 | 0.00 | 61 | 1009.5 |
| 20260903161601 | 86 | 200 | 6.0 | 0.0 | 0.00 | 0.00 | 0.00 | 64 | 1009.5 |
| 20260903160057 | 83 | 171 | 5.0 | 0.0 | 0.00 | 0.00 | 0.00 | 68 | 1009.6 |
| 20260903154559 | 82 | 192 | 6.0 | 0.0 | 0.00 | 0.00 | 0.00 | 70 | 1009.5 |
| 20260903153054 | 82 | 170 | 8.0 | 0.0 | 0.00 | 0.00 | 0.00 | 72 | 1009.4 |
| 20260903151554 | 81 | 194 | 10.0 | 0.0 | 0.00 | 0.00 | 0.00 | 74 | 1009.4 |
| 20260903144553 | 81 | 195 | 7.0 | 0.0 | 0.00 | 0.00 | 0.00 | 77 | 1009.4 |
| 20260903143056 | 80 | 156 | 8.0 | 0.0 | 0.00 | 0.00 | 0.00 | 79 | 1009.6 |
| 20260903141558 | 79 | 195 | 8.0 | 0.0 | 0.00 | 0.00 | 0.00 | 82 | 1009.6 |
| 20260903140050 | 78 | 178 | 8.0 | 0.0 | 0.00 | 0.00 | 0.00 | 84 | 1009.8 |
| 20260903134550 | 77 | 183 | 7.0 | 0.0 | 0.00 | 0.00 | 0.00 | 85 | 1009.9 |
| 20260903133050 | 76 | 188 | 6.0 | 0.0 | 0.00 | 0.00 | 0.00 | 87 | 1010.1 |
| 20260903131604 | 76 | 167 | 6.0 | 0.0 | 0.00 | 0.00 | 0.00 | 88 | 1009.9 |
| 20260903130053 | 75 | 187 | 6.0 | 0.0 | 0.00 | 0.00 | 0.00 | 89 | 1009.9 |
| 20260903124546 | 75 | 201 | 7.0 | 0.0 | 0.00 | 0.00 | 0.00 | 89 | 1009.5 |
| 20260903123045 | 75 | 220 | 6.0 | 0.0 | 0.00 | 0.00 | 0.00 | 89 | 1009.3 |
| 20260903121555 | 75 | 213 | 6.0 | 0.0 | 0.00 | 0.00 | 0.00 | 89 | 1009.2 |
| 20260903120042 | 75 | 195 | 7.0 | 0.0 | 0.00 | 0.00 | 0.00 | 89 | 1009.1 |
| 20260903114543 | 75 | 182 | 7.0 | 0.0 | 0.00 | 0.00 | 0.00 | 88 | 1008.8 |
| 20260903113044 | 75 | 186 | 8.0 | 0.0 | 0.00 | 0.00 | 0.00 | 88 | 1008.8 |
| 20260903111545 | 75 | 193 | 8.0 | 0.0 | 0.00 | 0.00 | 0.00 | 87 | 1008.9 |
| 20260903110037 | 75 | 193 | 7.0 | 0.0 | 0.00 | 0.00 | 0.00 | 87 | 1008.9 |
| 20260903104548 | 75 | 168 | 7.0 | 0.0 | 0.00 | 0.00 | 0.00 | 87 | 1008.7 |
| 20260903103032 | 75 | 194 | 7.0 | 0.0 | 0.00 | 0.00 | 0.00 | 87 | 1008.6 |
| 20260903101529 | 75 | 184 | 7.0 | 0.0 | 0.00 | 0.00 | 0.00 | 87 | 1008.7 |
| 20260903100037 | 75 | 213 | 5.0 | 0.0 | 0.00 | 0.00 | 0.00 | 87 | 1008.7 |
| 20260903094527 | 75 | 204 | 6.0 | 0.0 | 0.00 | 0.00 | 0.00 | 87 | 1008.8 |
| 20260903093030 | 75 | 171 | 5.0 | 0.0 | 0.00 | 0.00 | 0.00 | 87 | 1009.0 |
| 20260903091524 | 75 | 182 | 4.0 | 0.0 | 0.00 | 0.00 | 0.00 | 86 | 1009.1 |
| 20260903090022 | 75 | 187 | 5.0 | 0.0 | 0.00 | 0.00 | 0.00 | 86 | 1008.9 |
| 20260903084520 | 76 | 178 | 4.0 | 0.0 | 0.00 | 0.00 | 0.00 | 83 | 1009.1 |
| 20260903083018 | 76 | 166 | 2.0 | 0.0 | 0.00 | 0.00 | 0.00 | 81 | 1008.9 |
| 20260903081520 | 77 | 186 | 4.0 | 0.0 | 0.00 | 0.00 | 0.00 | 80 | 1009.0 |
| 20260903080015 | 77 | 188 | 6.0 | 0.0 | 0.00 | 0.00 | 0.00 | 79 | 1008.9 |
| 20260903074512 | 77 | 213 | 7.0 | 0.0 | 0.00 | 0.00 | 0.00 | 78 | 1008.4 |
| 20260903073019 | 78 | 163 | 5.0 | 0.0 | 0.00 | 0.00 | 0.00 | 76 | 1008.5 |
| 20260903071509 | 78 | 185 | 6.0 | 0.0 | 0.00 | 0.00 | 0.00 | 76 | 1008.6 |
| 20260903070007 | 78 | 169 | 6.0 | 0.0 | 0.00 | 0.00 | 0.00 | 77 | 1008.9 |
| 20260903064503 | 79 | 161 | 5.0 | 0.0 | 0.00 | 0.00 | 0.00 | 75 | 1009.1 |
| 20260903063100 | 79 | 162 | 6.0 | 0.0 | 0.00 | 0.00 | 0.00 | 73 | 1008.9 |
| 20260903061601 | 80 | 152 | 5.0 | 0.0 | 0.00 | 0.00 | 0.00 | 71 | 1008.7 |
| 20260903060117 | 80 | 163 | 5.0 | 0.0 | 0.00 | 0.00 | 0.00 | 70 | 1008.7 |
| 20260903054552 | 81 | 159 | 9.0 | 0.0 | 0.00 | 0.00 | 0.00 | 68 | 1008.7 |
| 20260903053051 | 81 | 169 | 7.0 | 0.0 | 0.00 | 0.00 | 0.00 | 64 | 1008.9 |
| 20260903051547 | 82 | 196 | 7.0 | 0.0 | 0.00 | 0.00 | 0.00 | 64 | 1008.8 |
| 20260903050046 | 82 | 163 | 8.0 | 0.0 | 0.00 | 0.00 | 0.00 | 65 | 1008.4 |
| 20260903044544 | 83 | 168 | 9.0 | 0.0 | 0.00 | 0.00 | 0.00 | 64 | 1008.6 |
| 20260903043044 | 83 | 166 | 7.0 | 0.0 | 0.00 | 0.00 | 0.00 | 62 | 1008.6 |
| 20260903041545 | 84 | 177 | 6.0 | 0.0 | 0.00 | 0.00 | 0.00 | 58 | 1008.5 |
| 20260903040042 | 85 | 153 | 6.0 | 0.0 | 0.00 | 0.00 | 0.00 | 56 | 1008.3 |
| 20260903034542 | 85 | 126 | 1.0 | 0.0 | 0.00 | 0.00 | 0.00 | 50 | 1008.5 |
| 20260903033045 | 85 | 155 | 1.0 | 0.0 | 0.00 | 0.00 | 0.00 | 49 | 1008.2 |
| 20260903031544 | 86 | 153 | 2.0 | 0.0 | 0.00 | 0.00 | 0.00 | 48 | 1008.2 |
| 20260903030049 | 86 | 153 | 1.0 | 0.0 | 0.00 | 0.00 | 0.00 | 48 | 1007.8 |
| 20260903024541 | 86 | 157 | 2.0 | 0.0 | 0.00 | 0.00 | 0.00 | 47 | 1007.9 |
| 20260903023040 | 86 | 121 | 2.0 | 0.0 | 0.00 | 0.00 | 0.00 | 47 | 1007.7 |
| 20260903021546 | 86 | 144 | 2.0 | 0.0 | 0.00 | 0.00 | 0.00 | 47 | 1007.6 |
| 20260903020039 | 86 | 155 | 1.0 | 0.0 | 0.00 | 0.00 | 0.00 | 47 | 1007.4 |
| 20260903014547 | 86 | 126 | 1.0 | 0.0 | 0.00 | 0.00 | 0.00 | 46 | 1007.5 |
| 20260903013039 | 87 | 143 | 2.0 | 0.0 | 0.00 | 0.00 | 0.00 | 46 | 1007.5 |
| 20260903011551 | 87 | 147 | 2.0 | 0.0 | 0.00 | 0.00 | 0.00 | 45 | 1007.5 |
| 20260903010037 | 89 | 146 | 2.0 | 0.0 | 0.00 | 0.00 | 0.00 | 45 | 1007.1 |
| 20260903004538 | 90 | 151 | 3.0 | 0.0 | 0.00 | 0.00 | 0.00 | 44 | 1007.4 |
| 20260903003036 | 91 | 155 | 3.0 | 0.0 | 0.00 | 0.00 | 0.00 | 44 | 1007.3 |
| 20260903001535 | 92 | 172 | 3.0 | 0.0 | 0.00 | 0.00 | 0.00 | 43 | 1007.3 |
| 20260903000045 | 93 | 156 | 3.0 | 0.0 | 0.00 | 0.00 | 0.00 | 42 | 1007.2 |
| 20260902234534 | 94 | 165 | 4.0 | 0.0 | 0.00 | 0.00 | 0.00 | 41 | 1007.4 |
| 20260902233046 | 95 | 142 | 3.0 | 0.0 | 0.00 | 0.00 | 0.00 | 41 | 1007.2 |
| 20260902231533 | 95 | 88 | 2.0 | 0.0 | 0.00 | 0.00 | 0.00 | 41 | 1007.3 |
| 20260902230033 | 95 | 146 | 2.0 | 0.0 | 0.00 | 0.00 | 0.00 | 41 | 1007.3 |
| 20260902224532 | 95 | 103 | 2.0 | 0.0 | 0.00 | 0.00 | 0.00 | 41 | 1007.2 |
| 20260902223031 | 94 | 171 | 4.0 | 0.0 | 0.00 | 0.00 | 0.00 | 43 | 1007.3 |
| 20260902221529 | 92 | 174 | 4.0 | 0.0 | 0.00 | 0.00 | 0.00 | 43 | 1007.7 |
| 20260902220041 | 93 | 156 | 5.0 | 0.0 | 0.00 | 0.00 | 0.00 | 43 | 1007.9 |
| 20260902214546 | 92 | 190 | 3.0 | 0.0 | 0.00 | 0.00 | 0.00 | 43 | 1007.9 |
| 20260902213028 | 93 | 212 | 6.0 | 0.0 | 0.00 | 0.00 | 0.00 | 42 | 1007.8 |
| 20260902211526 | 93 | 207 | 1.0 | 0.0 | 0.00 | 0.00 | 0.00 | 44 | 1007.8 |
| 20260902210028 | 92 | 155 | 3.0 | 0.0 | 0.00 | 0.00 | 0.00 | 42 | 1008.1 |
| 20260902204524 | 94 | 168 | 3.0 | 0.0 | 0.00 | 0.00 | 0.00 | 42 | 1008.2 |
| 20260902203023 | 94 | 127 | 5.0 | 0.0 | 0.00 | 0.00 | 0.00 | 40 | 1008.5 |
| 20260902201531 | 96 | 136 | 2.0 | 0.0 | 0.00 | 0.00 | 0.00 | 39 | 1008.6 |
| 20260902194502 | 96 | 155 | 4.0 | 0.0 | 0.00 | 0.00 | 0.00 | 40 | 1008.8 |
| 20260902193105 | 96 | 64 | 4.0 | 0.0 | 0.00 | 0.00 | 0.00 | 40 | 1009.1 |
| 20260902191602 | 96 | 254 | 4.0 | 0.0 | 0.00 | 0.00 | 0.00 | 41 | 1009.3 |